Regional Weather Roundup
Issued by NWS Wakefield, VA

Home | Current Version | Previous Version | Graphics & Text | Print | Product List | Glossary On
Versions: 1 2 3 4 5 6 7 8 9 10 11 12 13 14 15 16 17 18 19 20 21 22 23 24 25 26 27 28 29 30 31 32 33 34 35 36 37 38 39 40 41 42 43 44 45 46 47 48 49 50
000
ASUS41 KAKQ 151610
RWRAKQ

REGIONAL WEATHER ROUNDUP
NATIONAL WEATHER SERVICE WAKEFIELD VA
1200 PM EDT MON SEP 15 2014

Note: "fair" indicates few or no clouds below 12,000 feet with no
significant weather and/or obstructions to visibility. * = Denotes
station may not report precipitation (e.g., rain,snow,etc.),
thunder or fog.

VAZ042-051-052>054-056-151700-
NORTHERN VIRGINIA

CITY           SKY/WX    TMP DP  RH WIND       PRES   REMARKS
WASH NATIONAL  PTSUNNY   71  53  52 S3        30.23F
DULLES         SUNNY     68  51  54 NW5       30.23F
FORT BELVOIR   SUNNY     69  53  55 VRB3      30.23F
QUANTICO       MOSUNNY   69  55  60 SW3       30.23F
FREDERICKSBRG* MOSUNNY   72  55  55 CALM      30.21F
STAFFORD*      PTSUNNY   70  56  61 CALM      30.26F
WARRENTON      MOSUNNY   73  59  62 CALM      30.22F
CULPEPER*      MOSUNNY  N/A N/A N/A NE3       30.23F
MANASSAS*      NOT AVBL
LEESBURG*      SUNNY     68  54  60 CALM      30.24F
WINCHESTER     PTSUNNY   68  52  56 E5        30.23F
FRONT ROYAL*   PTSUNNY   66  52  59 CALM      30.21F
LURAY*         SUNNY     70  54  56 NE3       30.22F
$$

VAZ048-049-060>072-079>083-151700-
CENTRAL AND SOUTH CENTRAL VIRGINIA...AND NORTH CENTRAL NORTH CAROLINA

CITY           SKY/WX    TMP DP  RH WIND       PRES   REMARKS
RICHMOND       MOSUNNY   74  53  48 VRB5      30.22F
CHESTERFIELD*  MOSUNNY   73  52  46 SW3       30.23F
PETERSBURG*    CLOUDY    69  55  59 SE5       30.23F
HANOVER        MOSUNNY   72  55  55 VRB3      30.24F
TAPPAHANNOCK*  PTSUNNY   73  53  49 NE5       30.23F
CHARLOTTSVILLE PTSUNNY   71  53  52 MISG      30.23F
ORANGE*        MOSUNNY   70  52  52 CALM      30.24F
LOUISA*        MOSUNNY   70  55  60 E3        30.21F
FARMVILLE*     CLOUDY    72  55  56 CALM      30.20F
CREWE*         MOSUNNY   73  58  58 CALM      30.22F
FORT PICKETT*  MOSUNNY   71  58  64 SE5       30.22F
LUNENBURG*     CLOUDY    72  60  65 SE3       30.22F
SOUTH HILL*    CLOUDY    72  61  68 CALM      30.27F
LAWRENCEVILLE* CLOUDY    69  60  72 SE5       30.22F
ROANOKE RAPIDS CLOUDY    72  59  64 SE5       30.22F
RALEIGH        PTSUNNY   69  61  75 S5        30.23F
$$

VAZ088>098-151700-
SOUTHEAST VIRGINIA

CITY           SKY/WX    TMP DP  RH WIND       PRES   REMARKS
NORFOLK        CLOUDY    72  58  61 NE7       30.21F
VIRGINIA BEACH PTSUNNY   73  59  61 E8        30.20F
NORFOLK NAVAL  CLOUDY    73  59  61 NE7       30.22F
WEST POINT*    NOT AVBL
NEWPORT NEWS   CLOUDY    76  60  57 E7        30.21F
LANGLEY AFB    CLOUDY    72  59  64 E3        30.21F
FORT EUSTIS    CLOUDY    72  53  51 VRB2      30.20F
WILLIAMSBURG*  MOSUNNY   75  61  60 CALM      30.22F
HR EXEC AP*    CLOUDY    72  61  68 CALM      30.23F
FRANKLIN*        N/A     72  59  64 S3        30.22F
WAKEFIELD      CLOUDY    72  58  61 CALM      30.22F
$$

VAZ020-022-025-037-045-151700-
WEST CENTRAL AND SOUTHWEST VIRGINIA

CITY           SKY/WX    TMP DP  RH WIND       PRES   REMARKS
STAUNTON*      SUNNY     68  52  57 SW3       30.24F
HOT SPRINGS VA NOT AVBL
LYNCHBURG      MOSUNNY   69  59  70 CALM      30.24F
DANVILLE       MOSUNNY   73  60  63 CALM      30.22F
SOUTH BOSTON*  NOT AVBL
MARTINSVILLE   PTSUNNY   73  61  65 SE3       30.25S
ROANOKE        PTSUNNY   70  58  65 VRB3      30.24F
BLACKSBURG     MOSUNNY   66  63  88 CALM      30.26F
DUBLIN*        CLOUDY    65  63  92 CALM      30.26F
MARION*        CLOUDY    69  62  77 W8        30.27F
HILLSVILLE*    CLOUDY    64  60  88 SW3       30.26F
RICHLANDS*     CLOUDY    68  63  84 NW5       30.25F
WISE*          PTSUNNY   70  63  78 SW10      30.25F
ABINGDON*      CLOUDY    71  65  81 W5        30.24S
$$

MDZ021>025-VAZ099-100-151700-
SOUTHERN MARYLAND AND THE DELMARVA PENINSULA

CITY           SKY/WX    TMP DP  RH WIND       PRES   REMARKS
PATUXENT RIVER PTSUNNY   68  55  63 E8        30.23F
BAY BRIDGE APT   N/A     68  45  42 S3        30.24F
LEONARDTOWN    PTSUNNY   68  54  60 CALM      30.24F
DOVER          SUNNY     69  48  48 VRB5      30.22F
GEORGETOWN     SUNNY     70  47  43 NE10      30.23F
EASTON         MOSUNNY   70  50  49 CALM      30.27
CAMBRIDGE      SUNNY     72  52  49 CALM      30.23F
SALISBURY      CLOUDY    73  50  44 N7        30.22F
OCEAN CITY     MOSUNNY   71  50  47 NW7       30.22F
WALLOPS ISLAND MOSUNNY   71  53  52 E6        30.23F
ACCOMACK*      MOSUNNY   70  52  52 CALM      30.22S
$$

NCZ012>017-030>032-151700-
EASTERN NORTH CAROLINA

CITY           SKY/WX    TMP DP  RH WIND       PRES   REMARKS
ELIZABETH CITY CLOUDY    74  62  66 E6        30.21F
AHOSKIE*       PTSUNNY   71  58  63 SE3       30.22F
EDENTON*       CLOUDY    73  61  66 NE3       30.22S
CURRITUCK*     CLOUDY    73  59  61 E7        30.22F
KILL DEVIL HLS PTSUNNY   74  60  61 NE7       30.20S
MANTEO         PTSUNNY   73  61  64 NE8       30.21F
CAPE HATTERAS  MOSUNNY   75  63  66 NE8G18    30.19F
TARBORO*       CLOUDY    72  60  65 CALM      30.24S
GOLDSBORO      LGT RAIN  70  66  88 SE6       30.21F
WASHINGTON     SUNNY     70  61  75 CALM      30.22F
GREENVILLE     CLOUDY    70  61  73 CALM      30.23F
NEW BERN       CLOUDY    72  61  68 N6        30.23F
WILMINGTON     CLOUDY    74  66  76 VRB5      30.20F
$$

VAZ048-151700-
ELSEWHERE

CITY           SKY/WX    TMP DP  RH WIND       PRES   REMARKS
HARRISBURG PA  MOSUNNY   66  48  52 CALM      30.23F
BALTIMORE      MOSUNNY   66  51  58 E7        30.23F
ANNAPOLIS      PTSUNNY   65  53  65 SE8       30.23F
ANDREWS AFB    MOSUNNY   68  55  62 NE3       30.22F
WILMINGTON DE  MOSUNNY   67  47  48 CALM      30.24F
PHILADELPHIA   MOSUNNY   69  45  41 SE6       30.23F
WILDWOOD NJ*   SUNNY     66  48  52 NW8       30.24S
ATLANTIC CITY  MOSUNNY   68  51  54 E3        30.22F
HENDERSON NC   CLOUDY    70  58  66 S3        30.23F
GREENSBORO     CLOUDY    71  61  70 CALM      30.22F
ROCKY MOUNT    CLOUDY    72  60  66 CALM      30.23F
FAYETTEVILLE   CLOUDY    71  63  75 E3        30.22F
CHARLOTTE      CLOUDY    72  63  73 VRB3      30.23F
$$

VAZ100-151700-
MARINE

STATION/POSITION TIME  TEMP    WIND        PRES    WAVE   SWELL
                       AIR SEA DIR/SP/G            HT/PER HT/PER
                 (UTC) (F)     (DEG/KT/KT) (MB)    (FT/S) (FT/S)
44066 TX TWR #4  1600   66 74  360/  4/  6 1022.0F   2/ 7   2/ 7
CAPE MAY NJ      1600   66 75  330/  6/  8 1023.1F
LEWES DE         1600   65 71   10/  8/ 10 1023.5S
15NM E FENWICK I 1600   66 72              1023.0F   2/ 3
OCEAN-CITY-INLET 1600   67 71   20/  4/  5 1023.1F
WACHAPREAGUE VA  1600   68 72   80/  9/ 12 1023.5R
THOMAS POINT MD  1600   65 74   80/  3/  5 1024.9F
GOOSES REEF MD   1600   66      90/  4/  6 1024.5F
COVE POINT MD    1600   67     130/  3/  4 1023.8F
SOLOMONS ISLAND  1600      76                N/A
BISHOPS HEAD MD  1600   67 71   70/  5/  7 1023.3F
PINEY POINT MD   1600          170/  5/  6   N/A
POTOMAC MD       1600   67      80/  6/  8 1023.1F
CAMBRIDGE MD     1600   66 75   50/  2/  4 1023.6F
LEWISETTA VA     1600   68 73   80/  5/  9 1023.2S
RAPPAHANNOCK LGT 1600           10/  6/  7 1023.8F
STINGRAY PT      1600   69      90/  4/  6   N/A
YORK RVR RNG VA  1600   70     110/  4/  6 1022.9F
YORKTOWN VA      1600   70 77   70/  2/  3 1023.0F
JAMESTOWN VA     1600   69     120/  2/  6   N/A
DOMINION TERM VA 1600   72     100/  3/  5 1023.2F
KIPTOPEKE VA     1600      79   50/  4/  8   N/A
CHES BAY BRIDGE  1600   70 76   50/  4/  6 1022.6F
CAPE HENRY VA    1600   71      60/  5/  6 1022.0F
CHESAPEAKE LGHT  1500   69      60/ 10/ 13 1024.1F
WILLOUBY STN VA  1600   70      70/  4/  5 1021.9S
S CRANEY ISL VA  1600           50/  5/  7 1022.7F
CAPE HENRY BUOY  1600      76                N/A     2/ 6
1ST LANDING BUOY 1600   71      50/  4/  8 1022.8F
CAPE CHARLES BUO 1600      75                N/A     2/ 6   2/ 6
OFFSHORE WE BUOY 1600      75                N/A     3/ 6   2/ 6
64NM E OF VA BCH 1600   70 80   30/ 10/ 14 1022.3F   3/ 6   2/ 6
DUCK PIER NC     1600   70 76   40/ 10/ 12 1022.3F
44100 DUCK FRF   1600      74                N/A     3/ 6
44056 DUCK FRF   1600                        N/A     2/ 6
OREGON INLET NC  1600   72 75   30/ 12/ 16 1022.7F
HATTERAS NC      1600   74 76   60/ 12/ 14 1022.9F
DIAMOND SHLS NC  1600   74      10/ 14/ 17 1022.2R   4/ 8   3/ 8
CAPE LOOKOUT NC  1500   74      40/ 13/ 16 1022.7R
$$


USA.gov is the U.S. government's official web portal to all federal, state and local government web resources and services.